Location: Unspecified
(34.4500°N, 0.0000°E)
Time: 23:17:52
(UTC+00:00)

Starlink Launch 2 leader - Visible Passes

Search period start: 08 December 2019 00:00
Search period end: 18 December 2019 00:00
Orbit: 279 x 281 km, 53.0° (Epoch: 13 November)

Date Brightness Start Highest point End Pass type
(mag) Time Alt. Az. Time Alt. Az. Time Alt. Az.
10 Dec 4.8 05:22:20 16° NNE 05:22:30 16° NE 05:24:07 10° ENE visible
11 Dec 3.7 05:24:34 31° NE 05:24:34 31° NE 05:26:45 10° ESE visible
12 Dec 2.8 05:26:52 57° SE 05:26:52 57° SE 05:28:54 10° SE visible
13 Dec 4.1 05:29:16 23° S 05:29:16 23° S 05:30:35 10° SSE visible
